{"data":{"norad_id":49101,"epoch":"2026-09-19T03:11:05.549568Z","epoch_age_seconds":140068,"freshness":"FRESH","line1":"1 49101U 21075AC  26262.13270312 -.00000137  00000+0 -41720-3 0  9996","line2":"2 49101  87.8983 331.9972 0002158 106.6831 253.4535 13.12442235247495","mean_motion":13.12442235,"eccentricity":0.0002158,"inclination_deg":87.8983,"raan_deg":331.9972,"arg_perigee_deg":106.6831,"mean_anomaly_deg":253.4535,"bstar":-0.0004172,"rev_number":24749,"period_min":109.71911460926,"perigee_km":1212.0879170699,"apogee_km":1215.3645652448,"semimajor_km":7591.8632411573,"source":"CELESTRAK","updated_at":"2026-09-20T09:00:44.658055Z"}}